User: anonymous   Login
Location: Unspecified
(0.0000°N, 0.0000°E)
Time: 19:37:39
(UTC+00:00)
Language:

NOSS 3-1 (C) - Orbit

View from above orbital plane
View from above orbital plane
View from above satellite
View from above satellite

Ground track
Ground track

The orbit data is extracted from the following two-line orbital elements,

1 26907U 01040C   18144.07661524 0.00000000  00000-0  00000-0 0    01
2 26907  63.4128 237.3239 0401000 359.7510   0.2490 13.41281788    02
Epoch (UTC): 24 May 2018 01:50:19
Eccentricity: 0.0401000
inclination: 63.4128°
perigee height: 804 km
apogee height: 1404 km
right ascension of ascending node: 237.3239°
argument of perigee: 359.7510°
revolutions per day: 13.41281788
mean anomaly at epoch: 0.2490°
orbit number at epoch: 0

The dashed part of the orbit path shows where the satellite is in the earth's shadow,  

DLR